Regional Weather Roundup
Issued by NWS Kansas City/Pleasant Hill, MO

Home | Current Version | Previous Version | Text Only | Print | Product List | Glossary On
Versions: 1 2 3 4 5 6 7 8 9 10 11 12 13 14 15 16 17 18 19 20 21 22 23 24 25 26 27
000
ASUS43 KEAX 061010
RWREAX

WEATHER ROUNDUP FOR EASTERN KANSAS AND NORTHWEST MISSOURI
NATIONAL WEATHER SERVICE KANSAS CITY/PLEASANT HILL MO
400 AM CST TUE DEC 06 2016

KSZ040-057-103>105-MOZ028-029-037-043-061100-
...KANSAS CITY METROPOLITAN AREA...

CITY           SKY/WX    TMP DP  RH WIND       PRES   REMARKS
K.C. INTL      CLOUDY    36  29  75 N23G31    29.85R WCI  24
K.C. DOWNTOWN  CLOUDY    40  35  83 N14G26    29.84R WCI  32
LEES SUMMIT    MOCLDY    37  34  89 N15       29.83R WCI  28
OLATHE - IXD   CLOUDY    38  35  89 N22G30    29.84R WCI  27
OLATHE - OJC   CLOUDY    37  33  85 N16       29.84R WCI  28
LAWRENCE       CLOUDY    35  30  82 NW22G31   29.88R WCI  23

$$

MOZ001>008-011>017-020>025-030>033-038>040-044>046-053-054-061100-
...NORTHERN AND CENTRAL MISSOURI...

CITY           SKY/WX    TMP DP  RH WIND       PRES   REMARKS
ST. JOSEPH     CLOUDY    35  29  78 N18       29.90R WCI  24
MOSBY          CLOUDY    36  36 100 NW15G21   29.84R WCI  26
WARRENSBURG    CLOUDY    32  32 100 NW3       29.81S
WHITEMAN AFB   FOG       28  28 100 CALM      29.80R VSB 3/4
CLINTON        FOG       28  28 100 CALM      29.81R VSB 1
SEDALIA        FOG       29  27  92 W5        29.81R VSB 1/2 WCI  24
WARSAW         NOT AVBL
CHILLICOTHE      N/A     32  31  96 NW3       29.84R
KIRKSVILLE     FOG       35  34  96 CALM      29.81S VSB 1

$$

MOZ041-047>049-056>058-063>065-088>090-097-061100-
...EASTERN AND SOUTHERN MISSOURI...

CITY           SKY/WX    TMP DP  RH WIND       PRES   REMARKS
ST. LOUIS INTL CLOUDY    39  34  82 NE3       29.77F
SPIRIT OF STL  LGT RAIN  37  37 100 CALM      29.75F FOG
COLUMBIA       FOG       31  30  96 N6        29.77F VSB 1/4 WCI  25
JEFFERSON CITY PTCLDY    32  32 100 NW5       29.78F WCI  27
ROLLA          CLOUDY    37  36  96 NW3       29.73F
OSAGE BEACH    PTCLDY    31  29  92 NW3       29.77S
SPRINGFIELD    MOCLDY    36  34  92 NW8       29.76R FOG     WCI  30
BRANSON        CLOUDY    39  39 100 CALM      29.75F FOG
JOPLIN         CLOUDY    35  34  96 CALM      29.81S
WEST PLAINS    CLOUDY    39  38  96 NW7       29.73F WCI  34

$$

IAZ060-094-KSZ022-034>040-054-083-096-NEZ052-066-093-061100-
...KANSAS...SOUTHEAST NEBRASKA AND IOWA...

CITY           SKY/WX    TMP DP  RH WIND       PRES   REMARKS
TOPEKA         CLOUDY    36  26  67 NW15G24   29.92R WCI  27
MANHATTAN      PTCLDY    33  23  66 N10       29.95R WCI  25
EMPORIA        CLOUDY    34  27  75 N21G29    29.89R WCI  22
CHANUTE        CLOUDY    37  36  96 N12       29.83S WCI  29
WICHITA        PTCLDY    34  25  69 N22G29    29.92R WCI  22
OMAHA          CLOUDY    29  18  63 NW13      29.93F WCI  19
LINCOLN        CLOUDY    30  15  53 NW24      29.96S WCI  16
FALLS CITY     CLOUDY    32  23  69 N13G23    29.92R WCI  22
LAMONI         CLOUDY    35  31  85 NW16G25   29.84R WCI  25
DES MOINES     FLURRIES  34  28  79 NW18G26   29.87R WCI  23

$$





USA.gov is the U.S. government's official web portal to all federal, state and local government web resources and services.